• în România
  • Lista ţărilor
  • Pe 7 zile
  • Temperatura apei
  • Hartă satelitară
  • Meteo pe hartă
  • Widget-uri
  • user-avatar
    Intrare

    Meteo pe oră la Vlast Truda

    Astăzi, 18 Octombrie, Joi

    Timp Temperatura Precipitaţii Vânt Presiune Umiditate
    00:00 +7°C° 0 mm 3 m/s 764 mmHg 77%
    01:00 +6°C° 0 mm 2 m/s 764 mmHg 79%
    02:00 +6°C° 0 mm 2 m/s 765 mmHg 80%
    03:00 +5°C° 0 mm 2 m/s 765 mmHg 82%
    04:00 +6°C° 0 mm 1 m/s 765 mmHg 83%
    05:00 +6°C° 0 mm 1 m/s 765 mmHg 84%
    06:00 +5°C° 0 mm 1 m/s 765 mmHg 84%
    07:00 +6°C° 0 mm 1 m/s 765 mmHg 78%
    08:00 +7°C° 0 mm 1 m/s 765 mmHg 73%
    09:00 +8°C° 0 mm 2 m/s 766 mmHg 66%
    10:00 +8°C° 0 mm 2 m/s 766 mmHg 61%
    11:00 +9°C° 0 mm 2 m/s 765 mmHg 56%
    12:00 +10°C° 0 mm 2 m/s 765 mmHg 51%
    13:00 +10°C° 0 mm 2 m/s 765 mmHg 51%
    14:00 +12°C° 0 mm 2 m/s 765 mmHg 51%
    15:00 +12°C° 0 mm 2 m/s 764 mmHg 50%
    16:00 +10°C° 0 mm 2 m/s 764 mmHg 54%
    17:00 +9°C° 0 mm 2 m/s 764 mmHg 59%
    18:00 +8°C° 0 mm 2 m/s 764 mmHg 63%
    19:00 +8°C° 0 mm 2 m/s 764 mmHg 64%
    20:00 +8°C° 0 mm 3 m/s 763 mmHg 65%
    21:00 +7°C° 0 mm 3 m/s 763 mmHg 67%
    22:00 +7°C° 0 mm 3 m/s 763 mmHg 69%
    23:00 +7°C° 0 mm 3 m/s 763 mmHg 70%

    Mâine, 19 Octombrie, Vineri

    Timp Temperatura Precipitaţii Vânt Presiune Umiditate
    00:00 +7°C° 0 mm 3 m/s 762 mmHg 72%
    01:00 +7°C° 0 mm 3 m/s 762 mmHg 74%
    02:00 +7°C° 0 mm 3 m/s 762 mmHg 76%
    03:00 +7°C° 0 mm 3 m/s 762 mmHg 79%
    04:00 +6°C° 0 mm 4 m/s 761 mmHg 81%
    05:00 +6°C° 0 mm 4 m/s 761 mmHg 83%
    06:00 +6°C° 0 mm 4 m/s 761 mmHg 86%
    07:00 +7°C° 0 mm 4 m/s 761 mmHg 83%
    08:00 +8°C° 0 mm 4 m/s 761 mmHg 80%
    09:00 +9°C° 0 mm 5 m/s 761 mmHg 78%
    10:00 +12°C° 0 mm 5 m/s 760 mmHg 73%
    11:00 +13°C° 0 mm 5 m/s 760 mmHg 69%
    12:00 +14°C° 0 mm 5 m/s 760 mmHg 65%
    13:00 +15°C° 0 mm 5 m/s 760 mmHg 64%
    14:00 +15°C° 0 mm 5 m/s 759 mmHg 63%
    15:00 +15°C° 0 mm 5 m/s 759 mmHg 62%
    16:00 +14°C° 0 mm 5 m/s 759 mmHg 66%
    17:00 +13°C° 0 mm 4 m/s 759 mmHg 70%
    18:00 +12°C° 0 mm 4 m/s 759 mmHg 74%
    19:00 +12°C° 0 mm 4 m/s 759 mmHg 74%
    20:00 +12°C° 0 mm 4 m/s 759 mmHg 74%
    21:00 +12°C° 0 mm 5 m/s 759 mmHg 74%
    22:00 +12°C° 0 mm 4 m/s 758 mmHg 74%
    23:00 +12°C° 0 mm 4 m/s 758 mmHg 75%

    Poimâine, 20 Octombrie, Sâmbătă

    Timp Temperatura Precipitaţii Vânt Presiune Umiditate
    00:00 +12°C° 0 mm 4 m/s 758 mmHg 75%
    01:00 +11°C° 0 mm 4 m/s 758 mmHg 76%
    02:00 +11°C° 0 mm 4 m/s 757 mmHg 77%
    03:00 +9°C° 0 mm 5 m/s 757 mmHg 78%
    04:00 +10°C° 0 mm 4 m/s 757 mmHg 79%
    05:00 +10°C° 0 mm 4 m/s 756 mmHg 79%
    06:00 +8°C° 0 mm 4 m/s 756 mmHg 80%
    07:00 +9°C° 0 mm 5 m/s 756 mmHg 76%
    08:00 +10°C° 0 mm 5 m/s 756 mmHg 73%
    09:00 +10°C° 0 mm 5 m/s 756 mmHg 69%
    10:00 +12°C° 0.1 mm 5 m/s 756 mmHg 69%
    11:00 +13°C° 0.1 mm 5 m/s 756 mmHg 69%
    12:00 +13°C° 0.1 mm 5 m/s 756 mmHg 68%
    13:00 +13°C° 0.2 mm 5 m/s 756 mmHg 72%
    14:00 +12°C° 0.2 mm 4 m/s 756 mmHg 76%
    15:00 +12°C° 0.2 mm 4 m/s 756 mmHg 80%
    16:00 +11°C° 0 mm 3 m/s 757 mmHg 81%
    17:00 +10°C° 0 mm 3 m/s 757 mmHg 83%
    18:00 +9°C° 0 mm 3 m/s 757 mmHg 84%
    19:00 +9°C° 0 mm 2 m/s 758 mmHg 84%
    20:00 +8°C° 0 mm 2 m/s 758 mmHg 84%
    21:00 +7°C° 0 mm 2 m/s 758 mmHg 84%
    22:00 +7°C° 0 mm 2 m/s 759 mmHg 84%
    23:00 +7°C° 0 mm 2 m/s 759 mmHg 85%

    21 Octombrie, Duminică

    Timp Temperatura Precipitaţii Vânt Presiune Umiditate
    00:00 +6°C° 0 mm 2 m/s 759 mmHg 86%
    01:00 +6°C° 0 mm 2 m/s 760 mmHg 86%
    02:00 +6°C° 0 mm 1 m/s 760 mmHg 87%
    03:00 +6°C° 0 mm 1 m/s 760 mmHg 87%
    04:00 +6°C° 0 mm 1 m/s 760 mmHg 88%
    05:00 +6°C° 0 mm 1 m/s 760 mmHg 89%
    06:00 +5°C° 0 mm 1 m/s 761 mmHg 89%
    07:00 +6°C° 0 mm 1 m/s 761 mmHg 85%
    08:00 +7°C° 0 mm 1 m/s 761 mmHg 80%
    09:00 +8°C° 0 mm 1 m/s 762 mmHg 75%
    10:00 +9°C° 0 mm 1 m/s 762 mmHg 71%
    11:00 +10°C° 0 mm 1 m/s 762 mmHg 66%
    12:00 +11°C° 0 mm 1 m/s 762 mmHg 61%
    13:00 +10°C° 0 mm 2 m/s 762 mmHg 61%
    14:00 +10°C° 0 mm 2 m/s 762 mmHg 60%
    15:00 +10°C° 0 mm 2 m/s 762 mmHg 60%
    16:00 +9°C° 0 mm 2 m/s 762 mmHg 64%
    17:00 +8°C° 0 mm 2 m/s 762 mmHg 69%
    18:00 +7°C° 0 mm 2 m/s 763 mmHg 73%
    19:00 +6°C° 0 mm 2 m/s 763 mmHg 75%
    20:00 +6°C° 0 mm 2 m/s 763 mmHg 77%
    21:00 +6°C° 0 mm 2 m/s 763 mmHg 79%
    22:00 +6°C° 0 mm 1 m/s 763 mmHg 80%
    23:00 +6°C° 0 mm 1 m/s 763 mmHg 81%

    22 Octombrie, Luni

    Timp Temperatura Precipitaţii Vânt Presiune Umiditate
    00:00 +6°C° 0 mm 1 m/s 764 mmHg 82%
    01:00 +5°C° 0 mm 1 m/s 764 mmHg 82%
    02:00 +5°C° 0 mm 1 m/s 764 mmHg 82%
    03:00 +5°C° 0 mm 1 m/s 764 mmHg 83%
    04:00 +5°C° 0 mm 1 m/s 764 mmHg 83%
    05:00 +4°C° 0 mm 1 m/s 764 mmHg 84%
    06:00 +4°C° 0 mm 1 m/s 764 mmHg 84%
    07:00 +5°C° 0 mm 1 m/s 765 mmHg 79%
    08:00 +6°C° 0 mm 1 m/s 765 mmHg 74%
    09:00 +7°C° 0 mm 1 m/s 765 mmHg 69%
    10:00 +8°C° 0 mm 1 m/s 765 mmHg 64%
    11:00 +9°C° 0 mm 1 m/s 765 mmHg 59%
    12:00 +10°C° 0 mm 1 m/s 765 mmHg 54%
    13:00 +10°C° 0 mm 1 m/s 764 mmHg 54%
    14:00 +10°C° 0 mm 1 m/s 764 mmHg 53%
    15:00 +10°C° 0 mm 1 m/s 764 mmHg 53%
    16:00 +9°C° 0 mm 1 m/s 764 mmHg 57%
    17:00 +8°C° 0 mm 1 m/s 764 mmHg 61%
    18:00 +7°C° 0 mm 1 m/s 764 mmHg 66%
    19:00 +7°C° 0 mm 1 m/s 764 mmHg 67%
    20:00 +6°C° 0 mm 1 m/s 764 mmHg 69%
    21:00 +5°C° 0 mm 2 m/s 764 mmHg 70%
    22:00 +5°C° 0 mm 2 m/s 763 mmHg 72%
    23:00 +4°C° 0 mm 2 m/s 763 mmHg 73%

    23 Octombrie, Marţi

    Timp Temperatura Precipitaţii Vânt Presiune Umiditate
    00:00 +4°C° 0 mm 2 m/s 763 mmHg 74%
    01:00 +4°C° 0 mm 2 m/s 763 mmHg 76%
    02:00 +4°C° 0 mm 2 m/s 762 mmHg 77%
    03:00 +4°C° 0 mm 2 m/s 762 mmHg 79%
    04:00 +4°C° 0 mm 2 m/s 762 mmHg 78%
    05:00 +4°C° 0 mm 2 m/s 762 mmHg 78%
    06:00 +4°C° 0 mm 2 m/s 762 mmHg 78%
    07:00 +5°C° 0 mm 2 m/s 762 mmHg 75%
    08:00 +5°C° 0 mm 3 m/s 762 mmHg 71%
    09:00 +7°C° 0 mm 3 m/s 762 mmHg 67%
    10:00 +8°C° 0 mm 3 m/s 761 mmHg 64%
    11:00 +9°C° 0 mm 3 m/s 761 mmHg 62%
    12:00 +8°C° 0 mm 4 m/s 761 mmHg 59%
    13:00 +9°C° 0.3 mm 3 m/s 761 mmHg 63%
    14:00 +9°C° 0.3 mm 3 m/s 760 mmHg 68%
    15:00 +8°C° 0.3 mm 2 m/s 760 mmHg 73%
    16:00 +8°C° 0 mm 2 m/s 760 mmHg 72%
    17:00 +8°C° 0 mm 2 m/s 760 mmHg 72%
    18:00 +8°C° 0 mm 2 m/s 760 mmHg 71%
    19:00 +8°C° 0.1 mm 2 m/s 759 mmHg 73%
    20:00 +8°C° 0.1 mm 2 m/s 759 mmHg 74%
    21:00 +8°C° 0.1 mm 2 m/s 759 mmHg 75%
    22:00 +8°C° 0.2 mm 2 m/s 759 mmHg 77%
    23:00 +8°C° 0.2 mm 2 m/s 759 mmHg 79%
    Arată mai mult